Monistrol de Calders





Hora UTC 20:20
Temperatura 1.9 ºC
Humitat 89.0 %
Pressió 1005.6 hPa
Pluja 0.0 mm
Velocitat vent 0.0 km/h
Direcció vent E

Dades diàries 2019-11-15



Hora UTC (hivern +1h; estiu +2h)
Temperatura (ºC) Humitat (%) Pressió (hPa) Velocitat vent (km/h) Precipitació (mm)
Hora UTC Aire Humitat Pressió Vel. Dir. Vel. Max Dir. Intent. màx 5 min.
00:05 -0.6 92.0 1001.2 1.6 SSE 1.6 0.0
00:10 -0.6 93.0 1001.3 3.2 ESE 6.4 0.0
00:15 -0.6 93.0 1001.3 1.6 ESE 6.4 0.0
00:20 -0.6 93.0 1001.3 0.0 ESE 3.2 0.0
00:25 -0.6 93.0 1001.3 0.0 ESE 3.2 0.0
00:30 -0.6 93.0 1001.3 1.6 ESE 3.2 0.0
00:35 -0.6 93.0 1001.5 1.6 SE 6.4 0.0
00:40 -0.6 93.0 1001.4 0.0 SSE 6.4 0.0
00:45 -0.5 93.0 1001.5 0.0 SSE 6.4 0.0
00:50 -0.6 93.0 1001.5 0.0 SSE 1.6 0.0
00:55 -0.6 93.0 1001.5 0.0 SSE 1.6 0.0
01:00 -0.6 93.0 1001.5 0.0 SSE 0.0 0.0
01:05 -0.6 93.0 1001.5 0.0 SSE 0.0 0.0
01:10 -0.6 93.0 1001.5 0.0 SSE 0.0 0.0
01:15 -0.7 93.0 1001.5 0.0 SSE 0.0 0.0
01:20 -0.7 93.0 1001.5 1.6 SSE 1.6 0.0
01:25 -0.8 93.0 1001.6 0.0 SSE 1.6 0.0
01:30 -0.8 93.0 1001.6 0.0 SSE 0.0 0.0
01:35 -0.7 93.0 1001.7 0.0 SSE 0.0 0.0
01:40 -0.8 93.0 1001.7 0.0 SSE 3.2 0.0
01:45 -0.8 93.0 1001.8 1.6 SSE 3.2 0.0
01:50 -0.9 93.0 1001.8 0.0 SSE 3.2 0.0
01:55 -0.9 93.0 1001.8 1.6 SSE 3.2 0.0
02:00 -0.9 93.0 1001.7 0.0 SSE 3.2 0.0
02:05 -0.9 93.0 1001.6 0.0 SSE 3.2 0.0
02:10 -0.8 93.0 1001.5 0.0 SSE 1.6 0.0
02:15 -0.9 93.0 1001.5 0.0 SSE 0.0 0.0
02:20 -0.9 93.0 1001.6 0.0 SSE 0.0 0.0
02:25 -1.0 93.0 1001.6 1.6 SSE 1.6 0.0
02:30 -1.0 93.0 1001.6 0.0 SSE 1.6 0.0
02:35 -1.1 93.0 1001.5 0.0 SSE 1.6 0.0
02:40 -1.1 93.0 1001.5 1.6 SSE 1.6 0.0
02:45 -1.1 93.0 1001.5 0.0 SSE 3.2 0.0
02:50 -1.1 93.0 1001.5 0.0 SSE 0.0 0.0
02:55 -1.1 93.0 1001.6 0.0 SSE 1.6 0.0
03:00 -1.1 93.0 1001.6 3.2 SSE 6.4 0.0
03:05 -1.1 93.0 1001.6 1.6 SE 9.7 0.0
03:10 -0.9 93.0 1001.6 3.2 SE 9.7 0.0
03:15 -0.9 93.0 1001.6 6.4 S 8.0 0.0
03:20 -0.8 93.0 1001.6 0.0 ESE 6.4 0.0
03:25 -0.8 93.0 1001.7 0.0 ESE 1.6 0.0
03:30 -0.8 93.0 1001.7 0.0 ESE 0.0 0.0
03:35 -0.8 93.0 1001.8 0.0 ESE 0.0 0.0
03:40 -0.8 93.0 1001.8 0.0 ESE 0.0 0.0
03:45 -0.8 93.0 1001.8 0.0 ESE 0.0 0.0
03:50 -0.8 93.0 1001.8 0.0 ESE 0.0 0.0
03:55 -0.8 93.0 1001.9 0.0 ESE 0.0 0.0
04:00 -0.9 93.0 1001.8 0.0 ESE 0.0 0.0
04:05 -0.9 93.0 1001.8 0.0 ESE 0.0 0.0
04:10 -0.9 93.0 1001.7 0.0 ESE 1.6 0.0
04:15 -0.9 93.0 1001.7 0.0 ESE 1.6 0.0
04:20 -0.9 93.0 1001.7 0.0 ESE 1.6 0.0
04:25 -1.0 93.0 1001.8 3.2 SE 4.8 0.0
04:30 -0.9 93.0 1001.8 0.0 SE 4.8 0.0
04:35 -0.9 93.0 1001.8 0.0 SE 3.2 0.0
04:40 -1.0 93.0 1001.7 0.0 SE 3.2 0.0
04:45 -1.0 93.0 1001.7 0.0 SE 1.6 0.0
04:50 -1.1 93.0 1001.8 0.0 SE 1.6 0.0
04:55 -1.1 93.0 1001.9 0.0 SE 1.6 0.0
05:00 -1.1 93.0 1001.9 0.0 SE 1.6 0.0
05:05 -1.0 93.0 1001.8 1.6 SE 1.6 0.0
05:10 -0.9 93.0 1001.8 0.0 SE 1.6 0.0
05:15 -1.0 93.0 1001.7 0.0 SE 0.0 0.0
05:20 -1.0 93.0 1001.8 0.0 SE 0.0 0.0
05:25 -1.0 93.0 1001.9 0.0 SE 0.0 0.0
05:30 -1.1 93.0 1001.9 0.0 SE 0.0 0.0
05:35 -1.1 93.0 1001.9 1.6 SE 1.6 0.0
05:40 -1.1 93.0 1001.9 0.0 SE 3.2 0.0
05:45 -1.1 93.0 1001.9 0.0 SE 3.2 0.0
05:50 -1.1 93.0 1001.9 0.0 SE 1.6 0.0
05:55 -1.1 93.0 1002.0 0.0 SE 0.0 0.0
06:00 -1.2 93.0 1002.1 0.0 SE 0.0 0.0
06:05 -1.3 93.0 1002.2 0.0 SE 0.0 0.0
06:10 -1.3 93.0 1002.3 0.0 SE 1.6 0.0
06:15 -1.3 93.0 1002.3 0.0 SE 1.6 0.0
06:20 -1.3 93.0 1002.3 0.0 SE 0.0 0.0
06:25 -1.3 93.0 1002.4 0.0 SE 0.0 0.0
06:30 -1.3 93.0 1002.4 0.0 SE 0.0 0.0
06:35 -1.4 93.0 1002.4 0.0 SE 1.6 0.0
06:40 -1.4 93.0 1002.4 0.0 SE 1.6 0.0
06:45 -1.4 93.0 1002.5 0.0 SE 0.0 0.0
06:50 -1.5 93.0 1002.6 4.8 SE 4.8 0.0
06:55 -1.6 93.0 1002.8 1.6 SE 4.8 0.0
07:00 -1.4 93.0 1002.9 0.0 SE 3.2 0.0
07:05 -1.4 93.0 1003.0 0.0 SE 1.6 0.0
07:10 -1.4 93.0 1003.0 0.0 SE 0.0 0.0
07:15 -1.4 93.0 1003.2 0.0 SE 0.0 0.0
07:20 -1.5 93.0 1003.3 0.0 SE 0.0 0.0
07:25 -1.5 93.0 1003.4 0.0 SE 1.6 0.0
07:30 -1.5 93.0 1003.5 0.0 SE 1.6 0.0
07:35 -1.5 93.0 1003.6 0.0 SE 3.2 0.0
07:40 -1.4 93.0 1003.5 1.6 SE 4.8 0.0
07:45 -1.3 93.0 1003.5 1.6 SE 4.8 0.0
07:50 -1.2 93.0 1003.3 0.0 SE 3.2 0.0
07:55 -1.1 93.0 1003.5 0.0 SE 3.2 0.0
08:00 -1.1 93.0 1003.5 0.0 SE 0.0 0.0
08:05 -0.9 93.0 1003.5 0.0 SE 1.6 0.0
08:10 -0.8 93.0 1003.5 0.0 SE 1.6 0.0
08:15 -0.8 93.0 1003.7 0.0 SE 1.6 0.0
08:20 -0.7 93.0 1003.7 0.0 SE 1.6 0.0
08:25 -0.5 93.0 1003.7 0.0 SE 1.6 0.0
08:30 -0.3 93.0 1003.7 0.0 SE 3.2 0.0
08:35 0.0 93.0 1003.6 0.0 SE 3.2 0.0
08:40 0.2 93.0 1003.6 3.2 SE 3.2 0.0
08:45 0.3 93.0 1003.7 0.0 SE 3.2 0.0
08:50 0.5 93.0 1003.8 0.0 SE 3.2 0.0
08:55 0.7 93.0 1003.7 0.0 SE 3.2 0.0
09:00 0.9 93.0 1003.8 0.0 SSE 4.8 0.0
09:05 1.2 93.0 1003.8 0.0 SSE 4.8 0.0
09:10 1.4 93.0 1003.9 0.0 SSE 1.6 0.0
09:15 1.6 93.0 1003.9 0.0 SSE 0.0 0.0
09:20 1.8 93.0 1003.9 0.0 ENE 1.6 0.0
09:25 1.9 93.0 1004.0 0.0 ENE 1.6 0.0
09:30 2.1 93.0 1004.0 0.0 ENE 3.2 0.0
09:35 2.3 93.0 1004.0 0.0 ENE 3.2 0.0
09:40 2.8 93.0 1003.9 0.0 ENE 3.2 0.0
09:45 3.2 93.0 1003.9 0.0 ENE 1.6 0.0
09:50 3.3 93.0 1003.9 0.0 ENE 0.0 0.0
09:55 3.6 93.0 1003.8 0.0 ENE 0.0 0.0
10:00 3.9 93.0 1003.7 0.0 ENE 3.2 0.0
10:05 4.2 92.0 1003.8 0.0 NW 3.2 0.0
10:10 4.3 92.0 1004.0 0.0 NW 0.0 0.0
10:15 4.5 92.0 1004.0 0.0 W 4.8 0.0
10:20 4.5 91.0 1004.0 0.0 W 4.8 0.0
10:25 4.3 89.0 1003.8 0.0 WNW 4.8 0.0
10:30 4.3 89.0 1004.0 0.0 WNW 6.4 0.0
10:35 4.3 89.0 1003.9 1.6 W 8.0 0.0
10:40 4.4 89.0 1003.8 1.6 W 11.3 0.0
10:45 4.6 89.0 1003.7 0.0 SW 11.3 0.0
10:50 4.8 89.0 1003.7 0.0 WNW 4.8 0.0
10:55 4.7 87.0 1003.7 0.0 WSW 4.8 0.0
11:00 4.7 87.0 1003.6 0.0 SW 4.8 0.0
11:05 4.7 87.0 1003.6 0.0 S 4.8 0.0
11:10 4.9 87.0 1003.5 0.0 SSE 0.0 0.0
11:15 5.2 87.0 1003.4 0.0 NNE 3.2 0.0
11:20 5.4 86.0 1003.4 6.4 WSW 6.4 0.0
11:25 5.3 85.0 1003.3 6.4 SW 12.9 0.0
11:30 5.2 85.0 1003.4 6.4 W 12.9 0.0
11:35 5.2 85.0 1003.2 4.8 WSW 12.9 0.0
11:40 5.2 86.0 1003.1 8.0 WSW 14.5 0.0
11:45 5.3 85.0 1003.2 0.0 SSE 14.5 0.0
11:50 5.4 86.0 1003.0 3.2 ENE 8.0 0.0
11:55 5.6 85.0 1003.2 1.6 WNW 8.0 0.0
12:00 5.6 85.0 1003.0 3.2 E 8.0 0.0
12:05 5.5 85.0 1003.0 1.6 W 8.0 0.0
12:10 5.5 85.0 1002.9 0.0 SW 11.3 0.0
12:15 5.6 85.0 1002.8 3.2 SSE 9.7 0.0
12:20 5.7 85.0 1002.9 0.0 WSW 9.7 0.0
12:25 5.7 84.0 1002.8 4.8 S 9.7 0.0
12:30 5.7 83.0 1002.6 4.8 WNW 14.5 0.0
12:35 5.7 84.0 1002.6 0.0 W 14.5 0.0
12:40 5.7 83.0 1002.6 0.0 W 6.4 0.0
12:45 5.8 83.0 1002.6 0.0 WNW 6.4 0.0
12:50 5.9 83.0 1002.6 1.6 WNW 6.4 0.0
12:55 6.2 84.0 1002.6 0.0 WNW 6.4 0.0
13:00 6.4 82.0 1002.6 0.0 W 4.8 0.0
13:05 6.6 81.0 1002.5 0.0 NE 4.8 0.0
13:10 6.7 80.0 1002.4 0.0 E 3.2 0.0
13:15 6.9 79.0 1002.3 3.2 WNW 4.8 0.0
13:20 7.1 78.0 1002.3 0.0 SSW 6.4 0.0
13:25 7.3 77.0 1002.4 1.6 WNW 11.3 0.0
13:30 7.5 76.0 1002.3 1.6 W 11.3 0.0
13:35 7.8 74.0 1002.3 6.4 SSW 9.7 0.0
13:40 7.8 74.0 1002.3 0.0 W 9.7 0.0
13:45 7.8 73.0 1002.2 1.6 W 14.5 0.0
13:50 7.8 72.0 1002.2 0.0 W 14.5 0.0
13:55 7.7 73.0 1002.2 12.9 WNW 12.9 0.0
14:00 7.7 72.0 1002.2 0.0 SSW 12.9 0.0
14:05 7.8 72.0 1002.3 9.7 W 12.9 0.0
14:10 7.8 72.0 1002.2 3.2 WNW 12.9 0.0
14:15 7.8 72.0 1002.3 0.0 NE 14.5 0.0
14:20 7.8 72.0 1002.3 1.6 W 14.5 0.0
14:25 7.7 72.0 1002.4 12.9 W 22.5 0.0
14:30 7.6 73.0 1002.5 12.9 SSW 22.5 0.0
14:35 7.5 73.0 1002.4 0.0 WNW 19.3 0.0
14:40 7.3 74.0 1002.5 3.2 W 14.5 0.0
14:45 7.2 74.0 1002.5 4.8 WNW 16.1 0.0
14:50 7.0 75.0 1002.6 16.1 WSW 16.1 0.0
14:55 6.8 75.0 1002.6 8.0 SW 19.3 0.0
15:00 6.9 75.0 1002.6 8.0 SSW 17.7 0.0
15:05 7.1 75.0 1002.6 9.7 S 19.3 0.0
15:10 6.9 75.0 1002.6 3.2 WNW 19.3 0.0
15:15 6.8 75.0 1002.6 3.2 SSW 20.9 0.0
15:20 6.8 75.0 1002.5 3.2 WNW 11.3 0.0
15:25 6.6 76.0 1002.5 3.2 W 11.3 0.0
15:30 6.6 77.0 1002.6 0.0 W 11.3 0.0
15:35 6.5 77.0 1002.6 0.0 WSW 6.4 0.0
15:40 6.4 77.0 1002.8 0.0 SW 8.0 0.0
15:45 6.3 78.0 1002.9 0.0 WNW 8.0 0.0
15:50 6.3 78.0 1002.9 0.0 NE 4.8 0.0
15:55 6.3 78.0 1003.0 8.0 SW 11.3 0.0
16:00 6.2 78.0 1003.1 8.0 WNW 12.9 0.0
16:05 6.2 78.0 1003.1 0.0 SW 12.9 0.0
16:10 6.1 78.0 1003.1 4.8 W 9.7 0.0
16:15 6.1 78.0 1003.2 4.8 W 17.7 0.0
16:20 6.1 78.0 1003.2 6.4 SW 17.7 0.0
16:25 6.0 78.0 1003.1 11.3 WSW 12.9 0.0
16:30 6.0 79.0 1003.2 6.4 S 17.7 0.0
16:35 5.9 79.0 1003.2 6.4 W 17.7 0.0
16:40 5.9 79.0 1003.2 8.0 WSW 19.3 0.0
16:45 5.9 79.0 1003.3 4.8 WSW 19.3 0.0
16:50 5.9 79.0 1003.3 4.8 WSW 17.7 0.0
16:55 5.8 80.0 1003.3 9.7 W 14.5 0.0
17:00 5.8 80.0 1003.3 0.0 WSW 12.9 0.0
17:05 5.8 80.0 1003.4 1.6 WSW 19.3 0.0
17:10 5.8 81.0 1003.5 0.0 W 19.3 0.0
17:15 5.8 81.0 1003.5 4.8 W 16.1 0.0
17:20 5.8 81.0 1003.7 4.8 WSW 25.7 0.0
17:25 5.8 81.0 1003.7 0.0 WSW 20.9 0.0
17:30 5.8 81.0 1003.8 0.0 SE 11.3 0.0
17:35 5.8 81.0 1003.8 0.0 SSW 11.3 0.0
17:40 5.7 81.0 1003.8 0.0 WNW 14.5 0.0
17:45 5.7 81.0 1003.8 0.0 SSE 14.5 0.0
17:50 5.7 81.0 1003.8 4.8 WSW 12.9 0.0
17:55 5.6 81.0 1003.8 1.6 S 11.3 0.0
18:00 5.6 82.0 1003.9 1.6 S 14.5 0.0
18:05 5.5 82.0 1003.9 0.0 SW 14.5 0.0
18:10 5.4 82.0 1004.0 0.0 SW 11.3 0.0
18:15 5.4 82.0 1004.1 0.0 WSW 11.3 0.0
18:20 5.3 82.0 1004.1 0.0 WNW 8.0 0.0
18:25 5.3 82.0 1004.2 0.0 SW 12.9 0.0
18:30 5.2 83.0 1004.4 1.6 WNW 11.3 0.0
18:35 5.2 83.0 1004.4 3.2 WSW 6.4 0.0
18:40 5.1 83.0 1004.5 0.0 SW 6.4 0.0
18:45 5.1 83.0 1004.6 0.0 WSW 3.2 0.0
18:50 5.0 83.0 1004.6 0.0 WSW 1.6 0.0
18:55 4.9 83.0 1004.6 0.0 E 3.2 0.0
19:00 4.7 83.0 1004.6 0.0 E 3.2 0.0
19:05 4.7 84.0 1004.6 0.0 E 0.0 0.0
19:10 4.4 84.0 1004.6 0.0 E 0.0 0.0
19:15 4.3 84.0 1004.6 0.0 E 0.0 0.0
19:20 4.1 84.0 1004.7 0.0 E 0.0 0.0
19:25 3.8 85.0 1004.8 0.0 E 0.0 0.0
19:30 3.6 85.0 1004.8 0.0 E 0.0 0.0
19:35 3.3 86.0 1004.9 0.0 E 0.0 0.0
19:40 3.2 86.0 1005.0 0.0 E 0.0 0.0
19:45 3.0 87.0 1005.1 0.0 E 0.0 0.0
19:50 2.8 87.0 1005.1 0.0 E 0.0 0.0
19:55 2.6 88.0 1005.1 0.0 E 3.2 0.0
20:00 2.4 88.0 1005.2 0.0 E 3.2 0.0
20:05 2.3 88.0 1005.3 0.0 E 1.6 0.0
20:10 2.2 89.0 1005.5 0.0 E 3.2 0.0
20:15 2.1 89.0 1005.5 0.0 E 4.8 0.0
20:20 1.9 89.0 1005.6 0.0 E 4.8 0.0
Màxima 7.9 93.0 1005.6 16.1 WSW 25.7 0.0
Mínima -1.6 72.0 1001.2
Total 0.0